Regional Weather Roundup
Issued by NWS

Home | Current Version | Previous Version | Graphics & Text | Print | Product List | Glossary On
Versions: 1 2 3 4 5 6 7 8 9 10 11 12 13 14 15 16 17 18 19 20 21 22 23 24 25 26 27 28 29 30 31 32 33 34 35 36 37 38 39 40 41 42 43 44 45 46 47 48 49 50
684
ASUS45 KTFX 250410
RWRMT
MONTANA REGIONAL WEATHER ROUNDUP
NATIONAL WEATHER SERVICE GREAT FALLS MT
1000 PM MDT SUN SEP 24 2017

NOTE: "FAIR" INDICATES FEW OR NO CLOUDS BELOW 12000 FEET WITH NO
SIGNIFICANT WEATHER AND/OR OBSTRUCTIONS TO VISIBILITY.

MTZ001>007-043-250500-
WEST OF THE DIVIDE

CITY           SKY/WX    TMP DP  RH WIND       PRES   REMARKS
KALISPELL      CLOUDY    50  43  77 W3        30.05S
MISSOULA       CLOUDY    49  42  77 CALM      30.08R
BUTTE          CLOUDY    38  31  76 SE6       30.11R
MULLAN PASS    CLEAR     38  33  82 NW3       30.12S
ANACONDA         N/A     45  28  53 SW3       30.09S
DEER LODGE       N/A     43  30  61 CALM      30.11R
EUREKA           N/A     57  37  47 MISG      30.02S
HAMILTON         N/A     48  37  66 CALM      30.10R
LIBBY            N/A     50  39  66 CALM      30.04S
PLAINS           N/A     48  38  68 MISG      30.07
$$

MTZ008-052>055-250500-
SOUTHWEST MONTANA

CITY           SKY/WX    TMP DP  RH WIND       PRES   REMARKS
BOZEMAN        CLOUDY    44  34  67 S9        30.10S
DILLON         MOCLDY    41  28  60 S5        30.09R
W YELLOWSTONE  CLOUDY    39  28  65 VRB6      30.09S
ENNIS          CLEAR     34  27  75 S7        30.15R WCI  28
TWIN BRIDGES     N/A     42  27  55 CALM      30.07
$$

MTZ009-010-012-014-046-048-049-054-250500-
EAST SLOPES AND CENTRAL MONTANA

CITY           SKY/WX    TMP DP  RH WIND       PRES   REMARKS
CUT BANK       CLEAR     44  31  60 W6        30.03S
GREAT FALLS    CLEAR     42  29  59 SE7       30.05R
MALMSTROM AFB  CLEAR     38  31  77 S7        30.05S
HELENA         CLEAR     42  32  67 NW7       30.06R
BOWMANS CRNR     N/A     44  28  53 SW6       30.03S
CHOTEAU          N/A     45  30  57 W5        30.06S
FAIRFIELD        N/A     43  27  53 SE6       30.04S
POWER            N/A     39  27  62 SE5       30.04S
RAYNESFORD       N/A     42  30  61 S8        30.07R
ULM              N/A     42  31  66 CALM      30.05R
$$

MTZ011-013-016-021-045-047-050-051-250500-
NORTH CENTRAL MONTANA

CITY           SKY/WX    TMP DP  RH WIND       PRES   REMARKS
HAVRE          PTCLDY    48  33  56 SE6       30.04S
LEWISTOWN      CLEAR     37  35  92 E6        30.08S
N BAR RANCH      N/A     41  34  75 S5        30.12F
CHINOOK          N/A     46  37  71 E3        30.05S
DENTON           N/A     41  34  77 S9        30.04S
GEYSER           N/A     35  31  87 SW8       30.06S WCI  29
JUDITH GAP     MOCLDY    39  35  87 S8        30.10S
WINIFRED         N/A     45  35  67 S12       30.07S
$$

MTZ017>020-022>027-061-062-250500-
NORTHEAST MONTANA

CITY           SKY/WX    TMP DP  RH WIND       PRES   REMARKS
GLASGOW        CLEAR     46  37  71 S5        30.11R
JORDAN           N/A     37  33  85 CALM      30.12R
SIDNEY           N/A    N/A N/A N/A MISG        N/A
WOLF POINT     CLEAR     41  37  86 CALM      30.14R
MALTA          CLOUDY    46  37  71 CALM      30.09S
PLENTYWOOD       N/A     39  37  93 CALM      30.13R
POPLAR           N/A     43  37  81 SE5       30.14R
SCOBEY           N/A     40  31  70 MISG      30.10
$$

MTZ028>42-056>058-250500-
SOUTHCENTRAL AND SOUTHEAST MONTANA

CITY           SKY/WX    TMP DP  RH WIND       PRES   REMARKS
BAKER          CLOUDY    44  40  85 W3        30.15R
BILLINGS       CLEAR     45  37  73 CALM      30.10F
LIVINGSTON     CLOUDY    40  34  79 CALM      30.10S
MILES CITY     CLEAR     42  38  85 S6        30.13F
BIG TIMBER     MOCLDY    43  36  75 N6        30.12S
EKALAKA          N/A     41  37  85 CALM      30.10
HARLOWTON        N/A     39  32  76 MISG      30.10S
LAUREL           N/A     41  37  87 N7        30.11S
$$

REGIONAL REPORTS...DAKOTAS

CITY           SKY/WX    TMP DP  RH WIND       PRES   REMARKS
WILLISTON      CLOUDY    47  42  83 CALM      30.14R
MINOT          CLOUDY    49  45  86 W7        30.10R
DICKINSON      CLOUDY    44  42  93 CALM      30.11S
BEACH          CLOUDY    41  41 100 NW3       30.17S
CROSBY         CLOUDY    46  46 100 W5        30.13R
TIOGA          CLOUDY    45  45 100 W3        30.14R
BISMARCK       PTCLDY    46  45  96 NW3       30.11R
GRAND FORKS    LGT RAIN  51  51 100 NW13      30.01R FOG
FARGO          CLOUDY    52  50  93 NW12      30.01S
BUFFALO SD       N/A     44  42  93 N6        30.07S
RAPID CITY     CLOUDY    46  43  87 N8        30.12R
$$

REGIONAL REPORTS...WYOMING/IDAHO/WASHINGTON

CITY           SKY/WX    TMP DP  RH WIND       PRES   REMARKS
GILLETTE       CLOUDY    42  39  89 N5        30.12S
SHERIDAN       CLOUDY    45  41  86 CALM      30.13R
BUFFALO WY     CLOUDY    41  36  82 CALM      30.13S
CODY           CLOUDY    42  35  76 CALM      30.12R
IDAHO FALLS    CLOUDY    44  35  70 N7        30.07R
SALMON         CLOUDY    46  33  60 S5        30.09R
BOISE          CLEAR     54  35  48 NW9       30.03R
SPOKANE        MOCLDY    61  40  45 S5        30.05S
$$

REGIONAL REPORTS...ALBERTA

CITY           SKY/WX    TMP DP  RH WIND       PRES   REMARKS
EDMONTON       CLOUDY    54  46  76 S2        29.90S
CALGARY        MOCLDY    52  32  46 S7        29.98R
LETHBRIDGE     CLEAR     41  27  56 SW10G18   29.99S
MEDICINE HAT   CLEAR     43  30  61 SE5       30.00  HAZE
$$

REGIONAL REPORTS...SASKATCHEWAN

CITY           SKY/WX    TMP DP  RH WIND       PRES   REMARKS
SWIFT CURRENT    N/A     45  32  61 S7        30.06R
SASKATOON      CLEAR     43  36  75 SE6       30.07S
$$




USA.gov is the U.S. government's official web portal to all federal, state and local government web resources and services.